• In Czech Republic
  • List of Countries
  • For 7 days
  • Water Temperature
  • Satellite Maps
  • Weather Map
  • Weather Widgets
  • user-avatar
    Login

    Hourly Weather Shoptykol

    Today, 22 May, Tuesday

    Time Temperature Precipitation Wind Pressure Humidity
    00:00 +16°C° 0 mm 6 mps 761 mmHg 75%
    01:00 +15°C° 0 mm 6 mps 761 mmHg 74%
    02:00 +14°C° 0 mm 6 mps 762 mmHg 73%
    03:00 +12°C° 0 mm 7 mps 762 mmHg 70%
    04:00 +12°C° 0 mm 7 mps 762 mmHg 68%
    05:00 +12°C° 0 mm 7 mps 763 mmHg 67%
    06:00 +13°C° 0 mm 6 mps 763 mmHg 65%
    07:00 +15°C° 0 mm 7 mps 763 mmHg 59%
    08:00 +16°C° 0 mm 7 mps 764 mmHg 53%
    09:00 +17°C° 0 mm 7 mps 764 mmHg 46%
    10:00 +20°C° 0 mm 6 mps 764 mmHg 43%
    11:00 +21°C° 0 mm 6 mps 764 mmHg 40%
    12:00 +22°C° 0 mm 6 mps 764 mmHg 37%
    13:00 +23°C° 0 mm 6 mps 764 mmHg 37%
    14:00 +23°C° 0 mm 5 mps 764 mmHg 36%
    15:00 +25°C° 0 mm 4 mps 764 mmHg 35%
    16:00 +23°C° 0 mm 4 mps 764 mmHg 40%
    17:00 +24°C° 0 mm 3 mps 764 mmHg 44%
    18:00 +22°C° 0 mm 3 mps 764 mmHg 48%
    19:00 +20°C° 0 mm 3 mps 764 mmHg 51%
    20:00 +19°C° 0 mm 3 mps 764 mmHg 54%
    21:00 +17°C° 0 mm 3 mps 764 mmHg 56%
    22:00 +17°C° 0 mm 3 mps 765 mmHg 58%
    23:00 +16°C° 0 mm 3 mps 765 mmHg 61%

    Tomorrow, 23 May, Wednesday

    Time Temperature Precipitation Wind Pressure Humidity
    00:00 +16°C° 0 mm 3 mps 765 mmHg 63%
    01:00 +14°C° 0 mm 3 mps 765 mmHg 65%
    02:00 +14°C° 0 mm 3 mps 765 mmHg 67%
    03:00 +15°C° 0 mm 2 mps 765 mmHg 69%
    04:00 +16°C° 0 mm 2 mps 765 mmHg 67%
    05:00 +17°C° 0 mm 2 mps 765 mmHg 65%
    06:00 +18°C° 0 mm 2 mps 765 mmHg 63%
    07:00 +20°C° 0 mm 2 mps 765 mmHg 58%
    08:00 +23°C° 0 mm 2 mps 765 mmHg 52%
    09:00 +25°C° 0 mm 2 mps 765 mmHg 47%
    10:00 +26°C° 0 mm 2 mps 765 mmHg 44%
    11:00 +27°C° 0 mm 2 mps 765 mmHg 40%
    12:00 +28°C° 0 mm 2 mps 765 mmHg 37%
    13:00 +28°C° 0 mm 2 mps 764 mmHg 36%
    14:00 +29°C° 0 mm 2 mps 764 mmHg 35%
    15:00 +29°C° 0 mm 2 mps 764 mmHg 34%
    16:00 +29°C° 0 mm 2 mps 763 mmHg 38%
    17:00 +28°C° 0 mm 1 mps 763 mmHg 43%
    18:00 +28°C° 0 mm 1 mps 763 mmHg 47%
    19:00 +26°C° 0 mm 1 mps 763 mmHg 48%
    20:00 +24°C° 0 mm 1 mps 763 mmHg 50%
    21:00 +23°C° 0 mm 1 mps 762 mmHg 51%
    22:00 +22°C° 0 mm 1 mps 762 mmHg 52%
    23:00 +22°C° 0 mm 1 mps 762 mmHg 53%

    Day after tomorrow, 24 May, Thursday

    Time Temperature Precipitation Wind Pressure Humidity
    00:00 +21°C° 0 mm 2 mps 762 mmHg 54%
    01:00 +20°C° 0 mm 2 mps 761 mmHg 54%
    02:00 +20°C° 0 mm 2 mps 761 mmHg 55%
    03:00 +19°C° 0 mm 2 mps 761 mmHg 55%
    04:00 +20°C° 0 mm 3 mps 761 mmHg 54%
    05:00 +21°C° 0 mm 3 mps 761 mmHg 53%
    06:00 +22°C° 0 mm 3 mps 760 mmHg 52%
    07:00 +25°C° 0 mm 4 mps 760 mmHg 47%
    08:00 +27°C° 0 mm 4 mps 760 mmHg 42%
    09:00 +29°C° 0 mm 5 mps 760 mmHg 37%
    10:00 +30°C° 0 mm 5 mps 759 mmHg 34%
    11:00 +32°C° 0 mm 5 mps 759 mmHg 31%
    12:00 +33°C° 0 mm 5 mps 758 mmHg 28%
    13:00 +33°C° 0 mm 5 mps 758 mmHg 28%
    14:00 +33°C° 0 mm 5 mps 757 mmHg 28%
    15:00 +33°C° 0 mm 5 mps 757 mmHg 28%
    16:00 +32°C° 0 mm 4 mps 756 mmHg 32%
    17:00 +30°C° 0 mm 3 mps 756 mmHg 37%
    18:00 +29°C° 0 mm 2 mps 756 mmHg 41%
    19:00 +28°C° 0 mm 2 mps 756 mmHg 42%
    20:00 +26°C° 0 mm 2 mps 755 mmHg 43%
    21:00 +24°C° 0 mm 2 mps 755 mmHg 44%
    22:00 +24°C° 0 mm 3 mps 755 mmHg 43%
    23:00 +22°C° 0 mm 3 mps 754 mmHg 43%

    25 May, Friday

    Time Temperature Precipitation Wind Pressure Humidity
    00:00 +22°C° 0 mm 3 mps 754 mmHg 43%
    01:00 +21°C° 0 mm 3 mps 754 mmHg 43%
    02:00 +21°C° 0 mm 3 mps 754 mmHg 43%
    03:00 +20°C° 0 mm 3 mps 753 mmHg 43%
    04:00 +21°C° 0 mm 3 mps 753 mmHg 45%
    05:00 +21°C° 0 mm 2 mps 753 mmHg 48%
    06:00 +23°C° 0 mm 1 mps 753 mmHg 50%
    07:00 +24°C° 0 mm 2 mps 753 mmHg 48%
    08:00 +25°C° 0 mm 2 mps 752 mmHg 46%
    09:00 +26°C° 0 mm 3 mps 752 mmHg 44%
    10:00 +27°C° 0 mm 3 mps 752 mmHg 43%
    11:00 +28°C° 0 mm 3 mps 751 mmHg 43%
    12:00 +28°C° 0 mm 3 mps 751 mmHg 42%
    13:00 +27°C° 0 mm 4 mps 751 mmHg 48%
    14:00 +26°C° 0 mm 5 mps 751 mmHg 53%
    15:00 +24°C° 0 mm 7 mps 750 mmHg 59%
    16:00 +22°C° 0.5 mm 8 mps 751 mmHg 66%
    17:00 +18°C° 0.5 mm 9 mps 751 mmHg 72%
    18:00 +14°C° 0.5 mm 10 mps 751 mmHg 79%
    19:00 +13°C° 1.4 mm 9 mps 751 mmHg 79%
    20:00 +12°C° 1.4 mm 8 mps 752 mmHg 79%
    21:00 +11°C° 1.4 mm 7 mps 752 mmHg 79%
    22:00 +11°C° 0.1 mm 7 mps 753 mmHg 78%
    23:00 +10°C° 0.1 mm 7 mps 753 mmHg 76%

    26 May, Saturday

    Time Temperature Precipitation Wind Pressure Humidity
    00:00 +10°C° 0.1 mm 8 mps 754 mmHg 75%
    01:00 +9°C° 0 mm 8 mps 754 mmHg 72%
    02:00 +7°C° 0 mm 8 mps 754 mmHg 70%
    03:00 +6°C° 0 mm 8 mps 755 mmHg 67%
    04:00 +6°C° 0 mm 9 mps 755 mmHg 64%
    05:00 +6°C° 0 mm 10 mps 756 mmHg 62%
    06:00 +7°C° 0 mm 10 mps 756 mmHg 60%
    07:00 +8°C° 0 mm 10 mps 756 mmHg 56%
    08:00 +8°C° 0 mm 11 mps 757 mmHg 51%
    09:00 +9°C° 0 mm 11 mps 757 mmHg 46%
    10:00 +11°C° 0 mm 11 mps 757 mmHg 45%
    11:00 +11°C° 0 mm 11 mps 758 mmHg 44%
    12:00 +12°C° 0 mm 11 mps 758 mmHg 43%
    13:00 +12°C° 0 mm 10 mps 758 mmHg 43%
    14:00 +12°C° 0 mm 10 mps 759 mmHg 43%
    15:00 +13°C° 0 mm 10 mps 759 mmHg 43%
    16:00 +12°C° 0 mm 9 mps 760 mmHg 45%
    17:00 +11°C° 0 mm 8 mps 760 mmHg 47%
    18:00 +11°C° 0 mm 8 mps 761 mmHg 49%
    19:00 +9°C° 0 mm 7 mps 761 mmHg 50%
    20:00 +8°C° 0 mm 6 mps 762 mmHg 52%
    21:00 +7°C° 0 mm 5 mps 762 mmHg 53%
    22:00 +7°C° 0 mm 5 mps 762 mmHg 55%
    23:00 +6°C° 0 mm 4 mps 763 mmHg 57%

    27 May, Sunday

    Time Temperature Precipitation Wind Pressure Humidity
    00:00 +6°C° 0 mm 4 mps 763 mmHg 59%
    01:00 +5°C° 0 mm 4 mps 763 mmHg 60%
    02:00 +5°C° 0 mm 4 mps 763 mmHg 62%
    03:00 +5°C° 0 mm 3 mps 763 mmHg 64%
    04:00 +6°C° 0 mm 4 mps 764 mmHg 63%
    05:00 +7°C° 0 mm 4 mps 764 mmHg 63%
    06:00 +10°C° 0 mm 4 mps 764 mmHg 63%
    07:00 +11°C° 0 mm 4 mps 764 mmHg 57%
    08:00 +13°C° 0 mm 4 mps 763 mmHg 52%
    09:00 +15°C° 0 mm 4 mps 763 mmHg 47%
    10:00 +16°C° 0 mm 5 mps 763 mmHg 47%
    11:00 +19°C° 0 mm 6 mps 762 mmHg 47%
    12:00 +20°C° 0 mm 6 mps 761 mmHg 47%
    13:00 +20°C° 0.1 mm 7 mps 761 mmHg 48%
    14:00 +21°C° 0.1 mm 8 mps 760 mmHg 50%
    15:00 +21°C° 0.1 mm 8 mps 760 mmHg 52%
    16:00 +21°C° 0 mm 7 mps 759 mmHg 55%
    17:00 +21°C° 0 mm 6 mps 759 mmHg 58%
    18:00 +20°C° 0 mm 5 mps 758 mmHg 62%
    19:00 +19°C° 0 mm 6 mps 758 mmHg 64%
    20:00 +17°C° 0 mm 6 mps 758 mmHg 66%
    21:00 +16°C° 0 mm 7 mps 757 mmHg 68%
    22:00 +16°C° 0 mm 7 mps 757 mmHg 68%
    23:00 +16°C° 0 mm 8 mps 756 mmHg 69%
    Show more